Location: Gälforsberget
(66.6500°N, 22.4167°E)
Time: 01:39:28
(UTC+00:00)

Cosmos 2237 Rocket - Pass Details

Date: 11 April 2026
Orbit: 833 x 850 km, 71.0° (Epoch: 20 May)

Event Time Altitude Azimuth Distance (km) Brightness Sun altitude
Exits shadow 19:05:52 - 148° (SSE) 2,838 4.3 -6.2°
Reaches altitude 10° 19:07:16 10° 138° (SE) 2,475 4.0 -6.3°
Maximum altitude 19:10:46 17° 100° (E) 2,031 3.7 -6.6°
Drops below altitude 10° 19:14:16 10° 62° (ENE) 2,488 4.4 -6.9°
Sets 19:17:33 0° 43° (NE) 3,429 5.4 -7.1°
